QPF
0.01 0.01 0.00 0.00 0.00 0.00 0.00 0.00 0.00 0.00 0.00 0.01 0.01 0.01 0.01 0.00 0.00 0.00 0.00 0.00 0.00 0.00 0.00 0.01 0.00 0.00 0.00 0.00 0.01 0.01 0.00 0.00 0.00 0.01 0.01 0.01 0.02 0.01 0.02 0.03 0.03 0.04 0.04 0.04
0.00 0.00 0.00 0.00 0.00 0.00 0.00 0.00 0.00 0.00 0.00 0.01 0.00 0.00 0.00 0.00 0.00 0.00 0.00 0.00 0.00 0.00 0.00 0.00 0.00 0.00 0.00 0.00 0.00 0.00 0.00 0.00 0.00 0.01 0.01 0.02 0.02 0.02 0.02 0.02 0.03 0.04 0.04 0.05
0.00 0.00 0.00 0.00 0.00 0.00 0.00 0.00 0.00 0.00 0.00 0.00 0.01 0.00 0.00 0.00 0.00 0.00 0.00 0.00 0.00 0.00 0.00 0.00 0.00 0.00 0.00 0.00 0.01 0.01 0.01 0.00 0.01 0.01 0.01 0.01 0.01 0.01 0.01 0.01 0.02 0.03 0.03 0.02
0.01 0.01 0.01 0.00 0.00 0.00 0.00 0.00 0.00 0.00 0.00 0.00 0.00 0.00 0.00 0.00 0.00 0.00 0.00 0.00 0.00 0.00 0.00 0.01 0.01 0.00 0.00 0.00 0.01 0.01 0.01 0.01 0.01 0.01 0.01 0.01 0.00 0.00 0.00 0.01 0.01 0.02 0.01 0.01
0.01 0.00 0.01 0.00 0.00 0.00 0.00 0.00 0.00 0.00 0.00 0.00 0.00 0.00 0.00 0.00 0.00 0.00 0.00 0.00 0.00 0.00 0.00 0.00 0.00 0.00 0.01 0.01 0.01 0.01 0.01 0.01 0.01 0.01 0.01 0.01 0.00 0.00 0.01 0.01 0.01 0.01 0.01 0.00
0.00 0.00 0.01 0.01 0.00 0.00 0.00 0.00 0.00 0.00 0.01 0.00 0.00 0.00 0.00 0.00 0.00 0.00 0.00 0.00 0.00 0.00 0.00 0.00 0.00 0.00 0.00 0.01 0.01 0.02 0.01 0.01 0.01 0.01 0.01 0.01 0.00 0.00 0.01 0.01 0.00 0.00 0.01 0.01
0.01 0.00 0.00 0.01 0.00 0.00 0.00 0.00 0.00 0.00 0.01 0.01 0.00 0.00 0.00 0.00 0.00 0.00 0.00 0.00 0.00 0.00 0.00 0.00 0.00 0.00 0.00 0.00 0.02 0.02 0.01 0.01 0.01 0.01 0.01 0.01 0.00 0.01 0.01 0.01 0.01 0.01 0.02 0.01
0.01 0.00 0.00 0.00 0.01 0.01 0.01 0.00 0.00 0.00 0.00 0.00 0.00 0.00 0.00 0.00 0.00 0.00 0.00 0.00 0.00 0.00 0.00 0.00 0.00 0.00 0.00 0.00 0.01 0.01 0.01 0.01 0.01 0.01 0.01 0.01 0.01 0.01 0.01 0.01 0.01 0.01 0.02 0.01
0.00 0.00 0.00 0.00 0.00 0.00 0.01 0.01 0.00 0.00 0.00 0.01 0.00 0.00 0.00 0.00 0.00 0.00 0.00 0.00 0.00 0.00 0.00 0.00 0.00 0.00 0.00 0.00 0.01 0.01 0.01 0.01 0.01 0.01 0.02 0.02 0.01 0.01 0.01 0.01 0.02 0.02 0.03 0.02
0.00 0.00 0.00 0.00 0.00 0.00 0.00 0.01 0.01 0.00 0.00 0.00 0.01 0.00 0.00 0.00 0.00 0.01 0.00 0.00 0.00 0.00 0.00 0.00 0.00 0.00 0.00 0.01 0.01 0.02 0.02 0.02 0.02 0.02 0.02 0.02 0.02 0.02 0.02 0.03 0.03 0.04 0.03 0.03
0.01 0.00 0.01 0.01 0.00 0.00 0.01 0.01 0.01 0.01 0.01 0.01 0.00 0.00 0.00 0.00 0.01 0.01 0.01 0.00 0.00 0.00 0.01 0.01 0.01 0.01 0.01 0.01 0.01 0.02 0.02 0.02 0.01 0.01 0.02 0.02 0.02 0.03 0.03 0.03 0.04 0.04 0.04 0.03
0.01 0.00 0.01 0.01 0.00 0.01 0.01 0.01 0.01 0.01 0.01 0.01 0.01 0.00 0.00 0.00 0.00 0.00 0.00 0.00 0.01 0.01 0.01 0.01 0.01 0.01 0.01 0.01 0.01 0.01 0.02 0.01 0.01 0.01 0.02 0.02 0.02 0.02 0.03 0.03 0.03 0.03 0.03 0.02
0.01 0.01 0.01 0.01 0.01 0.01 0.01 0.00 0.00 0.01 0.01 0.01 0.00 0.00 0.00 0.00 0.00 0.00 0.00 0.01 0.01 0.01 0.01 0.01 0.01 0.01 0.01 0.01 0.01 0.01 0.02 0.02 0.02 0.02 0.02 0.02 0.02 0.02 0.02 0.01 0.02 0.01 0.01 0.01
0.01 0.01 0.00 0.00 0.00 0.00 0.00 0.00 0.00 0.01 0.00 0.00 0.00 0.00 0.00 0.00 0.00 0.00 0.00 0.00 0.00 0.00 0.01 0.01 0.01 0.01 0.01 0.01 0.01 0.01 0.01 0.02 0.02 0.02 0.02 0.02 0.01 0.01 0.01 0.01 0.01 0.01 0.01 0.01
0.01 0.01 0.01 0.00 0.00 0.00 0.00 0.00 0.00 0.00 0.00 0.00 0.00 0.00 0.00 0.00 0.00 0.00 0.00 0.00 0.00 0.00 0.00 0.01 0.01 0.01 0.01 0.01 0.01 0.01 0.01 0.02 0.02 0.02 0.02 0.02 0.01 0.01 0.01 0.01 0.01 0.01 0.01 0.01
0.00 0.01 0.01 0.01 0.00 0.00 0.00 0.00 0.01 0.00 0.00 0.00 0.00 0.00 0.01 0.01 0.00 0.00 0.00 0.00 0.00 0.00 0.00 0.00 0.01 0.01 0.01 0.01 0.02 0.02 0.02 0.02 0.03 0.03 0.02 0.02 0.02 0.01 0.01 0.01 0.00 0.01 0.01 0.01
0.01 0.01 0.01 0.00 0.00 0.00 0.00 0.00 0.01 0.00 0.00 0.01 0.01 0.01 0.01 0.00 0.00 0.00 0.00 0.00 0.00 0.00 0.00 0.00 0.00 0.01 0.01 0.01 0.01 0.01 0.02 0.02 0.02 0.02 0.01 0.01 0.01 0.01 0.01 0.01 0.01 0.01 0.01 0.01
0.01 0.01 0.01 0.01 0.01 0.01 0.00 0.00 0.00 0.01 0.01 0.01 0.01 0.01 0.00 0.00 0.00 0.00 0.00 0.00 0.00 0.00 0.00 0.00 0.00 0.01 0.01 0.01 0.01 0.01 0.01 0.01 0.01 0.01 0.01 0.01 0.01 0.01 0.01 0.01 0.01 0.01 0.01 0.01
0.00 0.01 0.01 0.01 0.01 0.01 0.00 0.00 0.01 0.01 0.02 0.01 0.01 0.01 0.01 0.00 0.00 0.00 0.00 0.00 0.00 0.00 0.00 0.00 0.00 0.00 0.00 0.01 0.01 0.02 0.02 0.01 0.01 0.01 0.01 0.01 0.01 0.01 0.01 0.01 0.00 0.00 0.01 0.01
0.00 0.00 0.00 0.01 0.01 0.01 0.01 0.01 0.01 0.01 0.01 0.01 0.01 0.01 0.01 0.00 0.00 0.00 0.00 0.00 0.00 0.00 0.00 0.00 0.00 0.01 0.01 0.01 0.01 0.02 0.03 0.02 0.01 0.02 0.02 0.01 0.01 0.00 0.00 0.00 0.00 0.00 0.00 0.01
0.00 0.00 0.00 0.00 0.00 0.00 0.01 0.01 0.01 0.02 0.01 0.00 0.00 0.00 0.00 0.01 0.01 0.01 0.00 0.00 0.00 0.00 0.00 0.00 0.00 0.01 0.01 0.01 0.01 0.03 0.03 0.02 0.01 0.01 0.01 0.01 0.00 0.00 0.00 0.00 0.00 0.00 0.00 0.00
0.00 0.00 0.00 0.00 0.00 0.00 0.00 0.00 0.00 0.01 0.01 0.01 0.01 0.01 0.01 0.01 0.01 0.00 0.00 0.00 0.00 0.00 0.00 0.00 0.01 0.01 0.01 0.01 0.01 0.02 0.03 0.02 0.02 0.01 0.01 0.01 0.00 0.00 0.00 0.00 0.00 0.00 0.00 0.00
0.00 0.00 0.00 0.00 0.00 0.00 0.00 0.00 0.00 0.00 0.00 0.01 0.01 0.02 0.02 0.01 0.01 0.01 0.00 0.00 0.00 0.00 0.00 0.01 0.01 0.02 0.02 0.02 0.02 0.02 0.03 0.03 0.02 0.02 0.01 0.01 0.01 0.00 0.00 0.00 0.00 0.00 0.00 0.00
0.00 0.00 0.00 0.00 0.00 0.00 0.00 0.00 0.00 0.00 0.00 0.00 0.00 0.00 0.00 0.01 0.01 0.01 0.01 0.01 0.01 0.01 0.01 0.01 0.01 0.01 0.01 0.01 0.01 0.02 0.02 0.03 0.02 0.02 0.01 0.01 0.01 0.01 0.01 0.00 0.00 0.00 0.00 0.00
0.00 0.00 0.00 0.00 0.00 0.00 0.00 0.00 0.00 0.00 0.00 0.00 0.00 0.00 0.00 0.00 0.00 0.00 0.01 0.01 0.01 0.01 0.02 0.02 0.02 0.02 0.01 0.01 0.01 0.01 0.01 0.02 0.02 0.02 0.02 0.02 0.01 0.01 0.01 0.01 0.00 0.00 0.00 0.00
0.00 0.00 0.00 0.00 0.00 0.00 0.00 0.00 0.00 0.00 0.00 0.00 0.00 0.00 0.00 0.00 0.00 0.00 0.00 0.01 0.01 0.01 0.02 0.02 0.02 0.02 0.02 0.02 0.01 0.01 0.01 0.01 0.01 0.01 0.01 0.01 0.02 0.02 0.02 0.01 0.01 0.00 0.01 0.01
MSLP
1015.79 1016.59 1017.27 1017.80 1018.18 1018.45 1018.63 1018.75 1018.86 1018.97 1019.07 1019.16 1019.22 1019.24 1019.19 1019.09 1018.94 1018.77 1018.59 1018.43 1018.30 1018.21 1018.15 1018.12 1018.11 1018.11 1018.12 1018.14 1018.18 1018.23 1018.32 1018.43 1018.57 1018.72 1018.85 1018.95 1019.00 1019.00 1018.93 1018.84 1018.73 1018.63 1018.59 1018.61
1016.56 1017.21 1017.74 1018.12 1018.40 1018.61 1018.78 1018.96 1019.14 1019.33 1019.51 1019.64 1019.70 1019.67 1019.54 1019.33 1019.08 1018.82 1018.58 1018.39 1018.28 1018.23 1018.23 1018.25 1018.28 1018.29 1018.28 1018.26 1018.24 1018.26 1018.32 1018.43 1018.60 1018.79 1019.00 1019.17 1019.29 1019.34 1019.31 1019.22 1019.09 1018.96 1018.86 1018.84
1017.11 1017.61 1017.99 1018.26 1018.46 1018.65 1018.85 1019.09 1019.37 1019.66 1019.90 1020.07 1020.11 1020.01 1019.78 1019.44 1019.06 1018.69 1018.38 1018.16 1018.06 1018.05 1018.11 1018.20 1018.28 1018.32 1018.33 1018.31 1018.27 1018.27 1018.32 1018.44 1018.63 1018.87 1019.14 1019.38 1019.57 1019.67 1019.68 1019.60 1019.46 1019.31 1019.19 1019.12
1017.47 1017.83 1018.08 1018.26 1018.43 1018.63 1018.90 1019.24 1019.62 1020.00 1020.31 1020.50 1020.50 1020.31 1019.95 1019.47 1018.94 1018.43 1018.03 1017.76 1017.64 1017.66 1017.78 1017.93 1018.09 1018.19 1018.24 1018.25 1018.23 1018.23 1018.29 1018.43 1018.65 1018.94 1019.25 1019.55 1019.79 1019.94 1019.98 1019.92 1019.80 1019.65 1019.50 1019.41
1017.69 1017.93 1018.09 1018.23 1018.40 1018.66 1019.01 1019.46 1019.96 1020.43 1020.79 1020.97 1020.92 1020.62 1020.12 1019.47 1018.77 1018.11 1017.59 1017.24 1017.09 1017.12 1017.27 1017.49 1017.71 1017.89 1018.00 1018.06 1018.08 1018.12 1018.21 1018.37 1018.61 1018.93 1019.27 1019.60 1019.88 1020.07 1020.15 1020.13 1020.04 1019.90 1019.77 1019.67
1017.86 1018.01 1018.11 1018.24 1018.45 1018.78 1019.25 1019.81 1020.41 1020.95 1021.34 1021.50 1021.37 1020.96 1020.30 1019.47 1018.60 1017.79 1017.13 1016.69 1016.48 1016.48 1016.65 1016.91 1017.18 1017.43 1017.61 1017.73 1017.81 1017.89 1018.01 1018.20 1018.46 1018.79 1019.15 1019.50 1019.81 1020.03 1020.15 1020.18 1020.13 1020.04 1019.95 1019.88
1018.04 1018.12 1018.20 1018.35 1018.61 1019.03 1019.60 1020.26 1020.94 1021.53 1021.92 1022.03 1021.82 1021.29 1020.49 1019.51 1018.48 1017.52 1016.73 1016.19 1015.90 1015.86 1016.01 1016.28 1016.58 1016.87 1017.11 1017.28 1017.41 1017.54 1017.69 1017.89 1018.16 1018.49 1018.85 1019.21 1019.53 1019.77 1019.94 1020.02 1020.04 1020.03 1020.01 1020.01
1018.24 1018.28 1018.36 1018.55 1018.88 1019.38 1020.02 1020.75 1021.47 1022.07 1022.45 1022.51 1022.22 1021.58 1020.67 1019.56 1018.41 1017.34 1016.45 1015.80 1015.44 1015.34 1015.44 1015.69 1015.99 1016.29 1016.55 1016.76 1016.93 1017.08 1017.25 1017.45 1017.72 1018.03 1018.37 1018.72 1019.04 1019.31 1019.53 1019.68 1019.79 1019.87 1019.96 1020.06
1018.44 1018.47 1018.58 1018.81 1019.20 1019.76 1020.45 1021.21 1021.93 1022.51 1022.84 1022.84 1022.48 1021.78 1020.79 1019.62 1018.40 1017.27 1016.31 1015.60 1015.17 1015.00 1015.05 1015.24 1015.51 1015.79 1016.04 1016.24 1016.42 1016.57 1016.73 1016.93 1017.16 1017.44 1017.76 1018.08 1018.40 1018.69 1018.95 1019.19 1019.39 1019.59 1019.80 1020.01
1018.60 1018.66 1018.81 1019.08 1019.51 1020.10 1020.80 1021.55 1022.24 1022.76 1023.03 1022.98 1022.57 1021.84 1020.84 1019.67 1018.46 1017.33 1016.36 1015.63 1015.16 1014.93 1014.91 1015.03 1015.22 1015.44 1015.65 1015.82 1015.97 1016.09 1016.23 1016.39 1016.58 1016.82 1017.08 1017.38 1017.68 1017.99 1018.30 1018.61 1018.92 1019.23 1019.56 1019.89
1018.70 1018.80 1018.99 1019.31 1019.77 1020.36 1021.04 1021.73 1022.35 1022.80 1023.00 1022.90 1022.48 1021.77 1020.82 1019.72 1018.60 1017.54 1016.63 1015.92 1015.43 1015.16 1015.07 1015.11 1015.21 1015.35 1015.48 1015.58 1015.67 1015.75 1015.83 1015.94 1016.08 1016.25 1016.47 1016.72 1017.00 1017.31 1017.66 1018.03 1018.43 1018.85 1019.28 1019.71
1018.74 1018.90 1019.15 1019.50 1019.97 1020.54 1021.16 1021.78 1022.30 1022.67 1022.80 1022.67 1022.27 1021.62 1020.77 1019.81 1018.83 1017.90 1017.10 1016.46 1016.00 1015.70 1015.55 1015.50 1015.50 1015.53 1015.56 1015.59 1015.60 1015.61 1015.63 1015.67 1015.74 1015.85 1016.01 1016.21 1016.46 1016.76 1017.12 1017.54 1018.00 1018.49 1019.01 1019.52
1018.77 1018.99 1019.29 1019.68 1020.15 1020.67 1021.22 1021.74 1022.16 1022.43 1022.51 1022.37 1022.01 1021.46 1020.76 1019.98 1019.19 1018.43 1017.77 1017.23 1016.81 1016.51 1016.30 1016.17 1016.07 1016.00 1015.93 1015.86 1015.79 1015.73 1015.68 1015.65 1015.66 1015.70 1015.78 1015.92 1016.13 1016.40 1016.76 1017.19 1017.69 1018.23 1018.79 1019.34
1018.87 1019.16 1019.51 1019.91 1020.35 1020.82 1021.28 1021.69 1022.01 1022.19 1022.22 1022.08 1021.78 1021.35 1020.83 1020.25 1019.66 1019.11 1018.61 1018.17 1017.81 1017.52 1017.27 1017.06 1016.87 1016.69 1016.52 1016.37 1016.23 1016.10 1015.99 1015.90 1015.84 1015.82 1015.84 1015.91 1016.06 1016.30 1016.63 1017.05 1017.54 1018.10 1018.67 1019.24
1019.14 1019.48 1019.85 1020.25 1020.65 1021.05 1021.41 1021.71 1021.91 1022.01 1021.99 1021.87 1021.64 1021.34 1020.99 1020.61 1020.23 1019.87 1019.53 1019.21 1018.91 1018.63 1018.35 1018.07 1017.80 1017.54 1017.29 1017.07 1016.87 1016.69 1016.53 1016.40 1016.29 1016.21 1016.17 1016.19 1016.28 1016.46 1016.74 1017.13 1017.60 1018.13 1018.70 1019.25
1019.62 1019.98 1020.35 1020.72 1021.06 1021.37 1021.61 1021.79 1021.89 1021.91 1021.85 1021.74 1021.58 1021.40 1021.21 1021.02 1020.84 1020.65 1020.45 1020.24 1020.00 1019.73 1019.42 1019.10 1018.77 1018.45 1018.15 1017.88 1017.64 1017.44 1017.26 1017.11 1016.97 1016.85 1016.77 1016.73 1016.76 1016.88 1017.11 1017.44 1017.87 1018.36 1018.89 1019.41
1020.31 1020.66 1021.00 1021.30 1021.56 1021.75 1021.87 1021.93 1021.91 1021.85 1021.76 1021.66 1021.57 1021.50 1021.45 1021.42 1021.39 1021.35 1021.28 1021.16 1020.97 1020.71 1020.40 1020.05 1019.69 1019.34 1019.01 1018.73 1018.49 1018.29 1018.11 1017.96 1017.81 1017.68 1017.56 1017.48 1017.46 1017.53 1017.69 1017.97 1018.34 1018.78 1019.26 1019.75
1021.14 1021.45 1021.71 1021.92 1022.06 1022.12 1022.11 1022.04 1021.92 1021.78 1021.66 1021.57 1021.52 1021.54 1021.61 1021.71 1021.82 1021.90 1021.93 1021.88 1021.74 1021.51 1021.21 1020.86 1020.49 1020.14 1019.82 1019.55 1019.34 1019.17 1019.02 1018.89 1018.76 1018.63 1018.50 1018.40 1018.34 1018.36 1018.47 1018.68 1018.99 1019.38 1019.81 1020.24
1021.98 1022.21 1022.37 1022.46 1022.46 1022.38 1022.23 1022.04 1021.82 1021.62 1021.46 1021.38 1021.38 1021.47 1021.63 1021.84 1022.06 1022.24 1022.36 1022.37 1022.29 1022.10 1021.82 1021.49 1021.15 1020.83 1020.55 1020.32 1020.16 1020.04 1019.94 1019.86 1019.76 1019.65 1019.52 1019.41 1019.33 1019.31 1019.37 1019.53 1019.78 1020.11 1020.49 1020.87
1022.68 1022.81 1022.85 1022.80 1022.66 1022.44 1022.17 1021.87 1021.57 1021.31 1021.14 1021.07 1021.11 1021.27 1021.51 1021.81 1022.11 1022.38 1022.57 1022.65 1022.62 1022.48 1022.25 1021.97 1021.67 1021.40 1021.18 1021.02 1020.92 1020.87 1020.83 1020.80 1020.75 1020.67 1020.57 1020.46 1020.37 1020.32 1020.34 1020.45 1020.65 1020.92 1021.24 1021.57
1023.14 1023.15 1023.06 1022.88 1022.61 1022.27 1021.89 1021.51 1021.16 1020.88 1020.70 1020.66 1020.75 1020.96 1021.27 1021.64 1022.02 1022.35 1022.61 1022.76 1022.79 1022.71 1022.54 1022.32 1022.09 1021.89 1021.74 1021.65 1021.62 1021.64 1021.67 1021.69 1021.69 1021.65 1021.57 1021.48 1021.38 1021.32 1021.32 1021.38 1021.53 1021.74 1022.00 1022.28
1023.28 1023.17 1022.97 1022.67 1022.30 1021.87 1021.43 1021.00 1020.63 1020.35 1020.20 1020.20 1020.34 1020.61 1020.98 1021.42 1021.85 1022.25 1022.56 1022.77 1022.86 1022.85 1022.75 1022.60 1022.45 1022.32 1022.24 1022.23 1022.26 1022.34 1022.42 1022.50 1022.54 1022.54 1022.49 1022.42 1022.33 1022.26 1022.23 1022.26 1022.36 1022.51 1022.71 1022.92
1023.12 1022.90 1022.60 1022.22 1021.78 1021.31 1020.84 1020.41 1020.07 1019.83 1019.74 1019.79 1019.99 1020.32 1020.74 1021.22 1021.71 1022.15 1022.51 1022.77 1022.92 1022.97 1022.94 1022.86 1022.77 1022.71 1022.70 1022.73 1022.82 1022.94 1023.07 1023.19 1023.27 1023.30 1023.28 1023.22 1023.15 1023.08 1023.04 1023.04 1023.09 1023.19 1023.32 1023.47
1022.71 1022.41 1022.03 1021.60 1021.14 1020.67 1020.23 1019.85 1019.57 1019.40 1019.38 1019.50 1019.77 1020.15 1020.62 1021.14 1021.65 1022.12 1022.52 1022.81 1023.01 1023.10 1023.13 1023.11 1023.08 1023.07 1023.10 1023.17 1023.29 1023.44 1023.60 1023.74 1023.84 1023.90 1023.91 1023.88 1023.82 1023.76 1023.71 1023.69 1023.70 1023.75 1023.82 1023.90
1022.15 1021.78 1021.36 1020.92 1020.47 1020.05 1019.67 1019.38 1019.19 1019.12 1019.19 1019.39 1019.72 1020.15 1020.65 1021.18 1021.71 1022.19 1022.60 1022.91 1023.13 1023.27 1023.33 1023.35 1023.36 1023.38 1023.44 1023.54 1023.67 1023.82 1023.99 1024.14 1024.26 1024.34 1024.37 1024.37 1024.34 1024.29 1024.24 1024.21 1024.20 1024.20 1024.23 1024.24
1021.53 1021.11 1020.68 1020.25 1019.85 1019.50 1019.23 1019.04 1018.96 1019.00 1019.17 1019.45 1019.83 1020.29 1020.81 1021.35 1021.87 1022.35 1022.75 1023.07 1023.30 1023.45 1023.53 1023.58 1023.61 1023.66 1023.72 1023.82 1023.95 1024.10 1024.26 1024.42 1024.55 1024.64 1024.70 1024.73 1024.72 1024.70 1024.67 1024.64 1024.61 1024.59 1024.57 1024.54
Thickness
5727 5714 5705 5710 5712 5713 5708 5703 5701 5706 5717 5712 5706 5707 5713 5718 5718 5716 5714 5713 5714 5716 5720 5720 5719 5718 5715 5713 5711 5709 5707 5705 5703 5700 5697 5694 5692 5692 5691 5691 5690 5689 5688 5687
5709 5706 5717 5720 5717 5713 5707 5701 5699 5705 5714 5710 5703 5705 5712 5716 5716 5717 5716 5714 5714 5715 5716 5716 5715 5714 5712 5710 5708 5706 5704 5702 5700 5698 5695 5692 5689 5687 5687 5686 5686 5685 5683 5682
5705 5712 5722 5717 5711 5706 5704 5700 5700 5700 5705 5705 5701 5698 5706 5714 5717 5718 5717 5716 5716 5715 5714 5713 5712 5711 5710 5708 5706 5705 5702 5699 5697 5694 5691 5688 5685 5683 5681 5681 5680 5680 5679 5677
5706 5716 5717 5711 5708 5706 5696 5710 5707 5701 5690 5682 5691 5675 5697 5704 5708 5713 5714 5713 5714 5715 5714 5712 5711 5709 5708 5708 5706 5703 5699 5696 5693 5691 5688 5684 5680 5677 5676 5676 5675 5675 5674 5673
5703 5712 5712 5707 5710 5710 5705 5711 5704 5698 5688 5678 5681 5674 5685 5698 5702 5708 5712 5713 5714 5715 5714 5712 5711 5710 5709 5707 5703 5700 5697 5693 5690 5687 5685 5681 5677 5675 5673 5672 5670 5669 5668 5668
5706 5715 5715 5713 5716 5714 5709 5699 5690 5679 5673 5664 5675 5670 5677 5691 5702 5709 5713 5714 5715 5714 5713 5712 5710 5708 5706 5703 5700 5696 5693 5689 5687 5684 5681 5678 5675 5671 5668 5666 5665 5664 5663 5662
5695 5705 5713 5717 5706 5705 5699 5680 5661 5658 5650 5656 5674 5671 5679 5703 5709 5712 5714 5714 5715 5713 5711 5709 5706 5704 5701 5699 5696 5693 5689 5686 5683 5680 5677 5675 5672 5669 5666 5663 5661 5659 5657 5656
5679 5680 5702 5709 5704 5695 5690 5680 5659 5650 5647 5654 5668 5667 5688 5708 5712 5714 5715 5714 5713 5710 5708 5707 5705 5703 5700 5697 5694 5690 5687 5683 5680 5677 5674 5672 5669 5665 5662 5660 5658 5655 5654 5652
5675 5678 5701 5708 5709 5700 5684 5676 5677 5659 5655 5650 5658 5671 5691 5707 5708 5709 5710 5709 5708 5707 5706 5705 5703 5701 5698 5695 5692 5689 5685 5681 5678 5674 5671 5668 5665 5662 5659 5656 5654 5651 5649 5648
5685 5677 5691 5699 5703 5698 5692 5678 5664 5655 5645 5641 5654 5663 5673 5693 5698 5702 5703 5703 5704 5704 5703 5702 5700 5698 5696 5693 5690 5686 5683 5679 5675 5671 5667 5665 5661 5658 5656 5652 5649 5647 5645 5643
5686 5674 5678 5686 5685 5682 5680 5674 5664 5652 5650 5640 5640 5658 5687 5690 5696 5696 5698 5700 5700 5699 5698 5698 5696 5695 5692 5689 5686 5682 5678 5674 5670 5666 5663 5660 5657 5654 5651 5647 5645 5642 5640 5638
5679 5668 5662 5674 5687 5691 5686 5677 5664 5654 5649 5642 5639 5656 5692 5691 5693 5694 5694 5696 5697 5696 5695 5693 5692 5689 5686 5684 5681 5678 5674 5670 5667 5663 5659 5655 5651 5648 5645 5642 5640 5637 5634 5632
5674 5663 5652 5657 5666 5677 5677 5675 5668 5658 5646 5636 5637 5657 5687 5687 5689 5690 5690 5691 5691 5691 5689 5687 5684 5682 5681 5679 5676 5673 5670 5666 5663 5659 5654 5650 5646 5643 5640 5637 5635 5632 5629 5626
5675 5660 5654 5652 5658 5667 5669 5671 5666 5657 5644 5639 5645 5659 5675 5680 5682 5684 5685 5686 5686 5685 5683 5680 5677 5676 5675 5673 5671 5668 5665 5662 5658 5654 5649 5645 5641 5638 5635 5632 5629 5626 5623 5620
5667 5656 5659 5661 5667 5668 5667 5668 5666 5660 5657 5651 5658 5660 5670 5675 5678 5681 5681 5681 5680 5679 5677 5675 5672 5670 5669 5667 5664 5662 5659 5656 5653 5648 5644 5640 5637 5633 5629 5626 5623 5620 5617 5614
5655 5653 5654 5655 5661 5661 5659 5663 5664 5662 5661 5658 5659 5661 5672 5675 5675 5676 5675 5675 5673 5673 5672 5670 5668 5665 5663 5661 5659 5656 5654 5651 5647 5642 5638 5635 5631 5627 5623 5619 5616 5613 5609 5607
5644 5644 5639 5637 5647 5652 5647 5658 5659 5660 5661 5660 5656 5663 5668 5668 5669 5670 5670 5670 5668 5667 5666 5664 5662 5660 5658 5656 5654 5651 5649 5645 5641 5636 5632 5628 5625 5620 5617 5613 5609 5606 5602 5600
5639 5634 5626 5626 5635 5632 5650 5663 5662 5659 5659 5658 5660 5662 5664 5665 5665 5666 5666 5664 5663 5662 5661 5659 5657 5654 5652 5650 5648 5645 5641 5638 5634 5630 5626 5622 5618 5614 5610 5606 5603 5599 5596 5593
5638 5632 5619 5614 5618 5626 5645 5655 5655 5652 5652 5658 5656 5659 5659 5659 5658 5657 5661 5660 5658 5657 5656 5654 5652 5649 5646 5643 5641 5637 5633 5630 5627 5623 5619 5616 5611 5607 5603 5599 5596 5593 5590 5587
5628 5626 5616 5609 5614 5617 5639 5654 5657 5651 5643 5655 5653 5652 5651 5650 5642 5647 5654 5653 5652 5651 5649 5647 5644 5642 5639 5636 5633 5630 5626 5623 5620 5617 5614 5610 5605 5601 5597 5594 5590 5587 5583 5580
5618 5613 5609 5605 5606 5618 5639 5647 5648 5632 5637 5651 5649 5648 5644 5641 5642 5645 5647 5645 5644 5643 5641 5639 5636 5633 5631 5629 5626 5622 5618 5616 5614 5611 5607 5603 5599 5595 5591 5587 5583 5580 5576 5573
5611 5606 5602 5598 5600 5614 5638 5637 5633 5636 5644 5645 5644 5643 5639 5638 5638 5638 5637 5637 5636 5634 5632 5630 5627 5625 5623 5621 5618 5614 5611 5610 5607 5603 5600 5596 5592 5589 5585 5580 5576 5573 5569 5565
5607 5611 5608 5608 5615 5626 5630 5632 5636 5635 5635 5637 5636 5637 5634 5632 5630 5629 5628 5627 5627 5625 5623 5621 5619 5616 5614 5612 5610 5607 5605 5602 5599 5595 5591 5588 5585 5581 5577 5573 5569 5564 5561 5558
5605 5607 5604 5604 5613 5620 5623 5625 5627 5628 5628 5630 5631 5630 5628 5625 5623 5621 5619 5618 5617 5616 5614 5612 5610 5607 5604 5603 5602 5600 5598 5595 5591 5587 5583 5579 5576 5572 5569 5566 5562 5558 5554 5551
5602 5599 5597 5599 5607 5611 5617 5618 5620 5621 5622 5621 5622 5621 5619 5617 5615 5613 5610 5609 5607 5606 5605 5603 5600 5598 5596 5594 5593 5591 5588 5586 5582 5577 5574 5571 5568 5564 5561 5558 5555 5552 5549 5547
5594 5596 5594 5599 5607 5604 5609 5614 5614 5613 5614 5614 5613 5612 5611 5609 5606 5604 5601 5600 5598 5596 5594 5592 5590 5589 5587 5585 5584 5582 5580 5577 5573 5569 5565 5562 5559 5556 5553 5549 5546 5544 5541 5540